Volver al catálogo

FENGYUN 1C DEB

LostPO
NORAD 38811·DEBRIS·🇨🇳 China

Lanzado May 10, 1999 desde Taiyuan Satellite Launch Center

Loading…

Próximos Pases (próximas 24 horas)

TLE

ObsoletoSource: Space-Track

Época: Oct 3, 2024, 02:44 UTC

1 38811U 99025EVB 24277.11394250  .00053621  00000-0  16567-1 0  9996
2 38811  99.0180  33.1985 0036948 306.7598  53.0199 14.40595057580085

Sigue FENGYUN 1C DEB en tiempo real con AllMySat

Download on the App Store